Zurück zum Katalog

COSMOS 839 DEB *

AktivLEO
NORAD 20503·DEBRIS·🇷🇺 Russia

Gestartet Jul 8, 1976 von Plesetsk Cosmodrome

Loading…

Nächste Überflüge (nächste 24 Stunden)

TLE

AlterndSource: Space-Track

Epoche: Sep 12, 2026, 16:04 UTC

1 20503U 76067BX  26255.66971303  .00000381  00000-0  19385-3 0  9992
2 20503  65.7340 238.5781 0907901 288.0277  62.3940 13.02165679679029

Verfolge COSMOS 839 DEB * in Echtzeit mit AllMySat

Download on the App Store